NOAA 16 DEB, 41366

Orbit data source: Space-Track

NOAA 16 DEB, 41366 is space debris in SSO originally from a launch on Thu, 21 Sep 2000 UTC launched from the Air Force Western Test Range (AFWTR). Debris objects in space refer to the collection of defunct objects orbiting the Earth. Examples of debris include non-operational satellites, rocket bodies, and fragments generated from explosions, collisions, or faulty payload assembly.

Loading next visibility...
Identifier
41366, 2000-055JK
Orbit
SSO
Country
Flag of USUS
Related business
Manufacturer
Unknown
Mission
Spacecraft
Bus & Motor
Unknown
Mass
Unknown
Launch date (UTC)
2000-09-21 (25 years ago)
Launch vehicle
Unknown
Launch site
Air Force Western Test Range (AFWTR)
Object type
Payload
Rocket body
Debris
Shape & HBR
Unknown
Radar Cross Section
Small (<0.1 m²)

Expand to show TLE details & history
Last TLE update: 2 days ago

TLE from 2 days ago
0 NOAA 16 DEB
1 41366U 00055JK  25241.07898251  .00013491  00000-0  48853-2 0  9992
2 41366  98.9386 342.3020 0026774  28.2157 332.0470 14.33331268491928
Epoch: 2025-08-29T01:53Z
TLE epoch observation values (Epoch: 2025-08-29T01:53:44.088Z)
Latitude
-0.00007°
Longitude
-23.66448°
Altitude
766.62 km
Speed
7.48 km/s
True Right ascension
22h 49m 12s
True Declination
0° 00' 00"
Sunlit
Object was in full shadow at epoch
Visualization orbit readout
Latitude
Unknown
Longitude
Unknown
Altitude
Unknown
Speed
Unknown
Apparent Right ascension
Unknown
Apparent Declination
Unknown
Sunlit
N/A
Visualization observer readout
Local Sidereal Time
15:45:09
Azimuth
Unknown
Elevation
Unknown
Doppler factor
Unknown
Orbital elements
Apogee altitude
796.928 km
Perigee altitude
758.61 km
Semi-major axis
7,155.906 km
Eccentricity
0.00268
Inclination
98.9386°
RAAN
342.302°
Arg. of periapsis
28.2157°
True anomaly
331.90276°
Mean anomaly
332.047°
Eccentric anomaly
331.97492°
Mean motion
3.58547 °/min
Orbital period
100.41 mins
BSTAR
0.0048853
Loading maneuver chart data...
Computing Atmospheric mass density...
Loading historical data...
Loading historical data...
Loading historical data...
Loading historical data...
Loading historical data...
Loading historical data...
Loading historical data...

Documentation

Showing up to 5 results
|